User: anonymous   Login
Location: Unspecified
(0.0000°N, 0.0000°E)
Time: 18:58:34
(UTC+00:00)
Language:

SSETI-EXPRESS - Orbit

View from above orbital plane
View from above orbital plane
View from above satellite
View from above satellite

Ground track
Ground track

The orbit data is extracted from the following two-line orbital elements,

1 28894U 05043E   17084.92818155 +.00000089 +00000-0 +26915-4 0  9996
2 28894 097.8691 245.9317 0018333 063.3101 296.9976 14.61427919607708
Epoch (UTC): 25 March 2017 22:16:34
Eccentricity: 0.0018333
inclination: 97.8691°
perigee height: 675 km
apogee height: 701 km
right ascension of ascending node: 245.9317°
argument of perigee: 63.3101°
revolutions per day: 14.61427919
mean anomaly at epoch: 296.9976°
orbit number at epoch: 60770

The dashed part of the orbit path shows where the satellite is in the earth's shadow,  

DLR